GW0038 Weather Reports


time (UTC)temp
C
wind
direction
speed
KPH
gust
KPH
rain 1hr
cm
rain 24hr
cm
rain mn
cm
humidity
%
barometer
mb
20260504175544 15 227 17.7 30.6 0.00 0.00 0.00 58 1009.7
20260504175046 15 238 19.3 35.4 0.00 0.00 0.00 59 1009.7
20260504174549 16 235 17.7 35.4 0.00 0.00 0.00 60 1009.6
20260504174042 16 220 19.3 32.2 0.00 0.00 0.00 58 1009.9
20260504173541 16 254 19.3 32.2 0.00 0.00 0.00 59 1009.9
20260504173043 16 221 19.3 30.6 0.00 0.00 0.00 58 1009.9
20260504172541 15 229 16.1 30.6 0.00 0.00 0.00 58 1009.9
20260504172042 15 218 17.7 32.2 0.00 0.00 0.00 58 1009.9
20260504171549 15 240 19.3 35.4 0.00 0.00 0.00 60 1010.0
20260504171042 15 232 22.5 35.4 0.00 0.00 0.00 57 1010.0
20260504170542 16 232 17.7 33.8 0.00 0.00 0.00 57 1010.0
20260504151042 15 267 19.3 32.2 0.00 0.00 0.00 57 1011.7
20260504150541 15 246 17.7 32.2 0.00 0.00 0.00 58 1011.6
20260504141041 13 269 17.7 25.7 0.00 0.00 0.00 62 1012.0
20260504140544 13 242 16.1 25.7 0.00 0.00 0.00 63 1012.1
20260504130544 12 222 16.1 32.2 0.00 0.00 0.00 65 1012.4
20260504110543 10 234 1.6 12.9 0.00 0.00 0.00 75 1012.4
20260504100541 6 274 0.0 1.6 0.00 0.00 0.00 72 1012.3
20260504081549 7 257 0.0 1.6 0.00 0.00 0.00 66 1011.9
20260504081040 7 257 0.0 1.6 0.00 0.00 0.00 66 1011.9
20260504080542 7 257 0.0 1.6 0.00 0.00 0.00 64 1011.9
20260504050543 6 0 0.0 1.6 0.00 0.00 0.00 71 1011.1
20260504045543 6 198 0.0 1.6 0.00 0.00 0.00 72 1011.0
20260504045043 7 0 0.0 1.6 0.00 0.00 0.00 72 1011.1
20260504044559 7 0 0.0 1.6 0.00 0.00 0.00 73 1011.1
20260504044043 7 0 0.0 1.6 0.00 0.00 0.00 73 1011.0
20260504043543 7 0 0.0 1.6 0.00 0.00 0.00 73 1011.0
20260504043050 8 0 0.0 1.6 0.00 0.00 0.00 73 1011.1
20260504042545 7 187 0.0 1.6 0.00 0.00 0.00 70 1011.0
20260504042048 8 0 0.0 1.6 0.00 0.00 0.00 71 1011.1
20260504041553 8 288 0.0 1.6 0.00 0.00 0.00 73 1011.1
20260504041041 8 0 0.0 1.6 0.00 0.00 0.00 75 1011.0
20260504040540 8 289 0.0 1.6 0.00 0.00 0.00 77 1011.0
20260504040052 8 0 0.0 1.6 0.00 0.00 0.00 77 1010.9
20260504035540 8 297 0.0 1.6 0.00 0.00 0.00 79 1010.8
20260504035044 8 271 0.0 3.2 0.00 0.00 0.00 80 1010.8
20260504034606 8 0 0.0 3.2 0.00 0.00 0.00 81 1010.9
20260504034040 8 254 1.6 3.2 0.00 0.00 0.00 80 1010.9
20260504033544 8 246 1.6 3.2 0.00 0.00 0.00 77 1011.0
20260504033049 8 244 0.0 3.2 0.00 0.00 0.00 75 1010.9
20260504032543 8 252 0.0 3.2 0.00 0.00 0.00 74 1010.9
20260504032045 8 0 0.0 1.6 0.00 0.00 0.00 74 1010.7
20260504031552 8 229 0.0 1.6 0.00 0.00 0.00 71 1010.8
20260504031044 9 191 0.0 1.6 0.00 0.00 0.00 61 1010.7
20260504030540 9 0 0.0 1.6 0.00 0.00 0.00 57 1010.8
20260504030050 10 0 0.0 1.6 0.00 0.00 0.00 52 1010.8
20260504025540 10 0 0.0 1.6 0.00 0.00 0.00 51 1010.8
20260504025043 10 0 0.0 1.6 0.00 0.00 0.00 51 1010.7
20260504024552 10 0 0.0 1.6 0.00 0.00 0.00 51 1010.8
20260504024045 10 261 0.0 1.6 0.00 0.00 0.00 52 1010.8
20260504023543 10 0 0.0 1.6 0.00 0.00 0.00 53 1010.8
20260504023051 10 0 0.0 1.6 0.00 0.00 0.00 57 1010.9
20260504022540 10 0 0.0 1.6 0.00 0.00 0.00 56 1010.8
20260504022043 10 0 0.0 1.6 0.00 0.00 0.00 57 1011.0
20260504021556 10 261 0.0 1.6 0.00 0.00 0.00 54 1010.9
20260504021039 10 261 0.0 1.6 0.00 0.00 0.00 52 1010.8
20260504020540 10 261 0.0 1.6 0.00 0.00 0.00 51 1010.7
20260504020056 10 260 0.0 1.6 0.00 0.00 0.00 50 1010.7
20260504015544 11 0 0.0 1.6 0.00 0.00 0.00 49 1010.8
20260504015041 11 261 0.0 1.6 0.00 0.00 0.00 46 1010.9
20260504014606 11 261 0.0 1.6 0.00 0.00 0.00 46 1010.8
20260504014041 11 261 0.0 1.6 0.00 0.00 0.00 44 1010.6
20260504013543 11 0 0.0 1.6 0.00 0.00 0.00 43 1010.7
20260504013052 11 0 0.0 3.2 0.00 0.00 0.00 43 1010.6
20260504012539 12 261 0.0 3.2 0.00 0.00 0.00 42 1010.5
20260504012043 12 0 0.0 1.6 0.00 0.00 0.00 42 1010.5
20260504011559 12 261 0.0 1.6 0.00 0.00 0.00 41 1010.4
20260504011042 12 0 0.0 1.6 0.00 0.00 0.00 40 1010.3
20260504010543 12 261 0.0 1.6 0.00 0.00 0.00 40 1010.2
20260504010059 12 261 0.0 1.6 0.00 0.00 0.00 39 1010.3
20260504005540 12 261 0.0 1.6 0.00 0.00 0.00 39 1010.2
20260504005040 12 261 0.0 1.6 0.00 0.00 0.00 38 1010.0
20260504004552 12 261 0.0 1.6 0.00 0.00 0.00 38 1010.0
20260504004041 12 261 0.0 1.6 0.00 0.00 0.00 38 1010.0
20260504003541 12 0 0.0 1.6 0.00 0.00 0.00 37 1009.9
20260504003051 12 0 0.0 1.6 0.00 0.00 0.00 37 1009.9
20260504002543 13 265 0.0 1.6 0.00 0.00 0.00 37 1009.8
20260504002043 13 0 0.0 1.6 0.00 0.00 0.00 38 1009.9
20260504001547 13 266 0.0 1.6 0.00 0.00 0.00 36 1009.7
20260504001042 13 0 0.0 1.6 0.00 0.00 0.00 35 1009.6
20260504000542 13 0 0.0 1.6 0.00 0.00 0.00 36 1009.5
20260504000051 13 0 0.0 3.2 0.00 0.00 0.00 35 1009.5
20260503235543 13 0 0.0 3.2 0.00 0.00 0.00 33 1009.5
20260503235043 13 360 0.0 3.2 0.00 0.00 0.00 33 1009.3
20260503234550 13 295 0.0 3.2 0.00 0.00 0.00 33 1009.1
20260503234044 13 292 0.0 12.9 0.00 0.00 0.00 33 1009.2
20260503233541 13 303 1.6 12.9 0.00 0.00 0.00 33 1009.1
20260503233052 13 317 1.6 12.9 0.00 0.00 0.00 32 1008.9
20260503232541 13 271 3.2 12.9 0.00 0.00 0.00 32 1009.1
20260503232043 13 316 0.0 17.7 0.00 0.00 0.00 31 1009.0
20260503231558 13 293 4.8 17.7 0.00 0.00 0.00 32 1009.0
20260503231043 14 270 6.4 22.5 0.00 0.00 0.00 31 1008.9
20260503230544 14 266 8.0 22.5 0.00 0.00 0.00 30 1009.0
20260503230059 14 304 9.7 27.4 0.00 0.00 0.00 30 1008.8
20260503225621 14 274 11.3 27.4 0.00 0.00 0.00 31 1008.8
20260503225043 14 293 14.5 27.4 0.00 0.00 0.00 30 1008.7
20260503224551 15 287 6.4 19.3 0.00 0.00 0.00 30 1008.7
20260503224043 15 297 11.3 20.9 0.00 0.00 0.00 30 1008.6
20260503223542 15 296 12.9 24.1 0.00 0.00 0.00 31 1008.6
20260503223055 15 323 9.7 24.1 0.00 0.00 0.00 31 1008.6
20260503222539 15 360 12.9 25.7 0.00 0.00 0.00 31 1008.8
20260503222041 14 284 16.1 30.6 0.00 0.00 0.00 31 1008.7
20260503221553 14 323 8.0 30.6 0.00 0.00 0.00 32 1008.7
20260503221044 14 302 11.3 29.0 0.00 0.00 0.00 32 1008.8
20260503220543 14 335 16.1 32.2 0.00 0.00 0.00 32 1008.7
20260503220055 14 80 12.9 32.2 0.00 0.00 0.00 32 1008.6
20260503215543 14 298 11.3 24.1 0.00 0.00 0.00 33 1008.7
20260503215044 14 279 11.3 25.7 0.00 0.00 0.00 33 1008.5
20260503214557 14 23 12.9 25.7 0.00 0.00 0.00 34 1008.6
20260503214043 14 267 16.1 25.7 0.00 0.00 0.00 34 1008.8
20260503213542 14 284 14.5 25.7 0.00 0.00 0.00 34 1008.7
20260503213101 14 310 12.9 32.2 0.00 0.00 0.00 34 1008.5
20260503212543 14 308 9.7 32.2 0.00 0.00 0.00 34 1008.5
20260503212044 14 317 12.9 32.2 0.00 0.00 0.00 33 1008.4
20260503211548 13 252 12.9 38.6 0.00 0.00 0.00 33 1008.5
20260503211041 13 292 24.1 45.1 0.00 0.00 0.00 33 1008.6
20260503210541 13 315 24.1 45.1 0.00 0.00 0.00 33 1008.5
20260503205541 13 279 12.9 32.2 0.00 0.00 0.00 34 1008.3
20260503205041 13 321 12.9 32.2 0.00 0.00 0.00 35 1008.4
20260503204556 13 301 14.5 33.8 0.00 0.00 0.00 35 1008.4
20260503204048 13 336 16.1 33.8 0.00 0.00 0.00 37 1008.5
20260503203542 13 283 19.3 33.8 0.00 0.00 0.00 36 1008.6
20260503203104 13 288 17.7 32.2 0.00 0.00 0.00 37 1008.3
20260503202543 13 323 12.9 38.6 0.00 0.00 0.00 37 1008.4
20260503202042 13 355 14.5 38.6 0.00 0.00 0.00 37 1008.4
20260503201554 13 331 12.9 37.0 0.00 0.00 0.00 38 1008.3
20260503201041 13 316 12.9 37.0 0.00 0.00 0.00 37 1008.6
20260503200547 13 321 3.2 22.5 0.00 0.00 0.00 37 1008.6
20260503200056 13 306 8.0 25.7 0.00 0.00 0.00 37 1008.6
20260503195542 13 292 11.3 25.7 0.00 0.00 0.00 38 1008.6
20260503195041 12 352 14.5 25.7 0.00 0.00 0.00 38 1008.6
20260503194551 12 275 9.7 22.5 0.00 0.00 0.00 41 1008.7
20260503194041 12 303 9.7 24.1 0.00 0.00 0.00 40 1008.7
20260503193542 12 30 11.3 24.1 0.00 0.00 0.00 40 1008.8
20260503193059 12 348 8.0 38.6 0.00 0.00 0.00 40 1008.8
20260503192542 12 315 17.7 38.6 0.00 0.00 0.00 41 1008.9
20260503192043 12 294 12.9 33.8 0.00 0.00 0.00 41 1008.9
20260503191550 12 323 20.9 40.2 0.00 0.00 0.00 41 1008.8
20260503191040 12 309 22.5 40.2 0.00 0.00 0.00 40 1008.8
20260503190543 12 278 14.5 30.6 0.00 0.00 0.00 41 1008.9
20260503190054 12 319 14.5 30.6 0.00 0.00 0.00 41 1009.0
20260503185539 11 265 12.9 38.6 0.00 0.00 0.00 41 1008.9
20260503185042 11 341 17.7 38.6 0.00 0.00 0.00 39 1008.9
20260503184604 12 299 22.5 37.0 0.00 0.00 0.00 39 1008.9
20260503184041 12 322 16.1 37.0 0.00 0.00 0.00 40 1008.9
20260503183543 12 298 11.3 45.1 0.00 0.00 0.00 41 1008.9
20260503183057 12 291 12.9 45.1 0.00 0.00 0.00 41 1008.9
20260503182540 12 269 20.9 37.0 0.00 0.00 0.00 41 1008.9
20260503182041 12 294 19.3 37.0 0.00 0.00 0.00 39 1008.8
20260503181601 12 323 19.3 35.4 0.00 0.00 0.00 39 1008.8
20260503181043 12 291 19.3 35.4 0.00 0.00 0.00 38 1008.7
20260503180541 12 317 14.5 35.4 0.00 0.00 0.00 37 1008.6
20260503180047 12 280 16.1 32.2 0.00 0.00 0.00 38 1008.8